| time (UTC) | temp C | wind direction | speed KPH | gust KPH | rain 1hr cm | rain 24hr cm | rain mn cm | humidity % | barometer mb |
| 20260509122955 | 28 | 0.0 | 0.0 | 0.00 | 0.00 | 0.00 | 40 | 1024.6 | |
| 20260509121955 | 30 | 0.0 | 0.0 | 0.00 | 0.00 | 0.00 | 40 | 1024.7 | |
| 20260509120955 | 30 | 0.0 | 0.0 | 0.00 | 0.00 | 0.00 | 39 | 1024.7 | |
| 20260509115955 | 28 | 0.0 | 0.0 | 0.00 | 0.00 | 0.00 | 41 | 1024.8 | |
| 20260509114955 | 28 | 0.0 | 0.0 | 0.00 | 0.00 | 0.00 | 40 | 1024.8 | |
| 20260509113955 | 28 | 0.0 | 0.0 | 0.00 | 0.00 | 0.00 | 40 | 1024.9 | |
| 20260509112955 | 28 | 0.0 | 0.0 | 0.00 | 0.00 | 0.00 | 41 | 1025.0 | |
| 20260509111955 | 28 | 0.0 | 0.0 | 0.00 | 0.00 | 0.00 | 40 | 1025.2 | |
| 20260509110955 | 27 | 0.0 | 0.0 | 0.00 | 0.00 | 0.00 | 41 | 1025.3 | |
| 20260509105955 | 27 | 0.0 | 0.0 | 0.00 | 0.00 | 0.00 | 41 | 1025.3 | |
| 20260509104955 | 27 | 0.0 | 0.0 | 0.00 | 0.00 | 0.00 | 41 | 1025.4 | |
| 20260509103955 | 26 | 0.0 | 0.0 | 0.00 | 0.00 | 0.00 | 43 | 1025.5 | |
| 20260509102955 | 25 | 0.0 | 0.0 | 0.00 | 0.00 | 0.00 | 45 | 1025.7 | |
| 20260509101955 | 25 | 0.0 | 0.0 | 0.00 | 0.00 | 0.00 | 45 | 1025.7 | |
| 20260509100955 | 26 | 0.0 | 0.0 | 0.00 | 0.00 | 0.00 | 46 | 1025.8 | |
| 20260509095955 | 25 | 0.0 | 0.0 | 0.00 | 0.00 | 0.00 | 46 | 1026.1 | |
| 20260509094955 | 25 | 0.0 | 0.0 | 0.00 | 0.00 | 0.00 | 46 | 1026.2 | |
| 20260509093955 | 24 | 0.0 | 0.0 | 0.00 | 0.00 | 0.00 | 47 | 1026.4 | |
| 20260509092955 | 23 | 0.0 | 0.0 | 0.00 | 0.00 | 0.00 | 49 | 1026.6 | |
| 20260509091955 | 22 | 0.0 | 0.0 | 0.00 | 0.00 | 0.00 | 52 | 1026.8 | |
| 20260509090955 | 21 | 0.0 | 0.0 | 0.00 | 0.00 | 0.00 | 52 | 1026.9 | |
| 20260509085955 | 21 | 0.0 | 0.0 | 0.00 | 0.00 | 0.00 | 54 | 1026.9 | |
| 20260509084955 | 21 | 0.0 | 0.0 | 0.00 | 0.00 | 0.00 | 53 | 1027.1 | |
| 20260509083955 | 21 | 0.0 | 0.0 | 0.00 | 0.00 | 0.00 | 57 | 1027.1 | |
| 20260509082955 | 20 | 0.0 | 0.0 | 0.00 | 0.00 | 0.00 | 60 | 1027.3 | |
| 20260509081954 | 20 | 0.0 | 0.0 | 0.00 | 0.00 | 0.00 | 63 | 1027.4 | |
| 20260509080954 | 18 | 0.0 | 0.0 | 0.00 | 0.00 | 0.00 | 68 | 1027.5 | |
| 20260509075954 | 17 | 0.0 | 0.0 | 0.00 | 0.00 | 0.00 | 70 | 1027.7 | |
| 20260509074955 | 17 | 0.0 | 0.0 | 0.00 | 0.00 | 0.00 | 71 | 1027.7 | |
| 20260509073955 | 16 | 0.0 | 0.0 | 0.00 | 0.00 | 0.00 | 72 | 1027.7 | |
| 20260509072955 | 15 | 0.0 | 0.0 | 0.00 | 0.00 | 0.00 | 76 | 1027.8 | |
| 20260509071954 | 15 | 0.0 | 0.0 | 0.00 | 0.00 | 0.00 | 78 | 1027.8 | |
| 20260509070954 | 15 | 0.0 | 0.0 | 0.00 | 0.00 | 0.00 | 82 | 1027.9 | |
| 20260509065954 | 15 | 0.0 | 0.0 | 0.00 | 0.00 | 0.00 | 81 | 1028.0 | |
| 20260509064954 | 15 | 0.0 | 0.0 | 0.00 | 0.00 | 0.00 | 80 | 1028.1 | |
| 20260509063954 | 15 | 0.0 | 0.0 | 0.00 | 0.00 | 0.00 | 81 | 1028.2 | |
| 20260509062954 | 15 | 0.0 | 0.0 | 0.00 | 0.00 | 0.00 | 82 | 1028.4 | |
| 20260509061955 | 15 | 0.0 | 0.0 | 0.00 | 0.00 | 0.00 | 82 | 1028.6 | |
| 20260509060954 | 15 | 0.0 | 0.0 | 0.00 | 0.00 | 0.00 | 83 | 1028.8 | |
| 20260509055954 | 14 | 0.0 | 0.0 | 0.00 | 0.00 | 0.00 | 85 | 1028.9 | |
| 20260509054954 | 14 | 0.0 | 0.0 | 0.00 | 0.00 | 0.00 | 88 | 1029.1 | |
| 20260509053954 | 14 | 0.0 | 0.0 | 0.00 | 0.00 | 0.00 | 87 | 1029.2 | |
| 20260509052954 | 13 | 0.0 | 0.0 | 0.00 | 0.00 | 0.00 | 83 | 1029.3 | |
| 20260509051954 | 13 | 0.0 | 0.0 | 0.00 | 0.00 | 0.00 | 82 | 1029.2 | |
| 20260509050954 | 13 | 0.0 | 0.0 | 0.00 | 0.00 | 0.00 | 80 | 1029.2 | |
| 20260509045954 | 13 | 0.0 | 0.0 | 0.00 | 0.00 | 0.00 | 78 | 1029.2 | |
| 20260509044954 | 13 | 0.0 | 0.0 | 0.00 | 0.00 | 0.00 | 80 | 1029.1 | |
| 20260509043954 | 13 | 0.0 | 0.0 | 0.00 | 0.00 | 0.00 | 80 | 1029.0 | |
| 20260509042954 | 13 | 0.0 | 0.0 | 0.00 | 0.00 | 0.00 | 80 | 1028.9 | |
| 20260509041954 | 12 | 0.0 | 0.0 | 0.00 | 0.00 | 0.00 | 80 | 1028.8 | |
| 20260509040954 | 12 | 0.0 | 0.0 | 0.00 | 0.00 | 0.00 | 81 | 1028.7 | |
| 20260509035954 | 12 | 0.0 | 0.0 | 0.00 | 0.00 | 0.00 | 82 | 1028.6 | |
| 20260509034954 | 12 | 0.0 | 0.0 | 0.00 | 0.00 | 0.00 | 82 | 1028.5 | |
| 20260509033954 | 12 | 0.0 | 0.0 | 0.00 | 0.00 | 0.00 | 83 | 1028.6 | |
| 20260509032954 | 12 | 0.0 | 0.0 | 0.00 | 0.00 | 0.00 | 81 | 1028.6 | |
| 20260509031954 | 12 | 0.0 | 0.0 | 0.00 | 0.00 | 0.00 | 82 | 1028.6 | |
| 20260509030954 | 11 | 0.0 | 0.0 | 0.00 | 0.00 | 0.00 | 81 | 1028.7 | |
| 20260509025954 | 12 | 0.0 | 0.0 | 0.00 | 0.00 | 0.00 | 83 | 1028.6 | |
| 20260509024955 | 12 | 0.0 | 0.0 | 0.00 | 0.00 | 0.00 | 83 | 1028.5 | |
| 20260509023954 | 12 | 0.0 | 0.0 | 0.00 | 0.00 | 0.00 | 81 | 1028.5 | |
| 20260509022954 | 12 | 0.0 | 0.0 | 0.00 | 0.00 | 0.00 | 81 | 1028.5 | |
| 20260509021954 | 11 | 0.0 | 0.0 | 0.00 | 0.00 | 0.00 | 81 | 1028.4 | |
| 20260509020954 | 11 | 0.0 | 0.0 | 0.00 | 0.00 | 0.00 | 82 | 1028.3 | |
| 20260509015954 | 12 | 0.0 | 0.0 | 0.00 | 0.00 | 0.00 | 79 | 1028.3 | |
| 20260509014954 | 11 | 0.0 | 0.0 | 0.00 | 0.00 | 0.00 | 80 | 1028.3 | |
| 20260509013954 | 11 | 0.0 | 0.0 | 0.00 | 0.00 | 0.00 | 79 | 1028.2 | |
| 20260509012954 | 12 | 0.0 | 0.0 | 0.00 | 0.00 | 0.00 | 81 | 1028.1 | |
| 20260509011954 | 11 | 0.0 | 0.0 | 0.00 | 0.00 | 0.00 | 80 | 1028.1 | |
| 20260509010954 | 11 | 0.0 | 0.0 | 0.00 | 0.00 | 0.00 | 80 | 1028.1 | |
| 20260509005954 | 11 | 0.0 | 0.0 | 0.00 | 0.00 | 0.00 | 80 | 1028.1 | |
| 20260509004954 | 11 | 0.0 | 0.0 | 0.00 | 0.00 | 0.00 | 80 | 1028.0 | |
| 20260509003954 | 11 | 0.0 | 0.0 | 0.00 | 0.00 | 0.00 | 80 | 1028.0 | |
| 20260509002954 | 11 | 0.0 | 0.0 | 0.00 | 0.00 | 0.00 | 79 | 1027.9 | |
| 20260509001954 | 11 | 0.0 | 0.0 | 0.00 | 0.00 | 0.00 | 78 | 1027.9 | |
| 20260509000954 | 11 | 0.0 | 0.0 | 0.00 | 0.00 | 0.00 | 79 | 1028.0 | |
| 20260508235954 | 11 | 0.0 | 0.0 | 0.00 | 0.00 | 0.00 | 78 | 1028.0 | |
| 20260508234954 | 11 | 0.0 | 0.0 | 0.00 | 0.00 | 0.00 | 78 | 1027.9 | |
| 20260508233954 | 11 | 0.0 | 0.0 | 0.00 | 0.00 | 0.00 | 80 | 1028.1 | |
| 20260508232954 | 11 | 0.0 | 0.0 | 0.00 | 0.00 | 0.00 | 79 | 1028.1 | |
| 20260508231954 | 11 | 0.0 | 0.0 | 0.00 | 0.00 | 0.00 | 79 | 1028.2 | |
| 20260508230954 | 10 | 0.0 | 0.0 | 0.00 | 0.00 | 0.00 | 80 | 1028.2 | |
| 20260508225954 | 10 | 0.0 | 0.0 | 0.00 | 0.00 | 0.00 | 80 | 1028.3 | |
| 20260508224954 | 10 | 0.0 | 0.0 | 0.00 | 0.00 | 0.00 | 79 | 1028.4 | |
| 20260508223954 | 10 | 0.0 | 0.0 | 0.00 | 0.00 | 0.00 | 79 | 1028.4 | |
| 20260508222954 | 10 | 0.0 | 0.0 | 0.00 | 0.00 | 0.00 | 79 | 1028.3 | |
| 20260508221954 | 10 | 0.0 | 0.0 | 0.00 | 0.00 | 0.00 | 79 | 1028.3 | |
| 20260508220954 | 11 | 0.0 | 0.0 | 0.00 | 0.00 | 0.00 | 77 | 1028.5 | |
| 20260508215954 | 10 | 0.0 | 0.0 | 0.00 | 0.00 | 0.00 | 79 | 1028.5 | |
| 20260508214954 | 10 | 0.0 | 0.0 | 0.00 | 0.00 | 0.00 | 79 | 1028.5 | |
| 20260508213954 | 10 | 0.0 | 0.0 | 0.00 | 0.00 | 0.00 | 79 | 1028.5 | |
| 20260508212954 | 10 | 0.0 | 0.0 | 0.00 | 0.00 | 0.00 | 78 | 1028.6 | |
| 20260508211954 | 11 | 0.0 | 0.0 | 0.00 | 0.00 | 0.00 | 77 | 1028.6 | |
| 20260508210954 | 11 | 0.0 | 0.0 | 0.00 | 0.00 | 0.00 | 77 | 1028.6 | |
| 20260508205954 | 11 | 0.0 | 0.0 | 0.00 | 0.00 | 0.00 | 76 | 1028.6 | |
| 20260508204954 | 11 | 0.0 | 0.0 | 0.00 | 0.00 | 0.00 | 76 | 1028.6 | |
| 20260508203954 | 11 | 0.0 | 0.0 | 0.00 | 0.00 | 0.00 | 76 | 1028.7 | |
| 20260508202954 | 11 | 0.0 | 0.0 | 0.00 | 0.00 | 0.00 | 74 | 1028.7 | |
| 20260508201954 | 11 | 0.0 | 0.0 | 0.00 | 0.00 | 0.00 | 74 | 1028.7 | |
| 20260508200954 | 12 | 0.0 | 0.0 | 0.00 | 0.00 | 0.00 | 71 | 1028.6 | |
| 20260508195954 | 12 | 0.0 | 0.0 | 0.00 | 0.00 | 0.00 | 73 | 1028.7 | |
| 20260508194954 | 12 | 0.0 | 0.0 | 0.00 | 0.00 | 0.00 | 73 | 1028.6 | |
| 20260508193954 | 12 | 0.0 | 0.0 | 0.00 | 0.00 | 0.00 | 72 | 1028.6 | |
| 20260508192954 | 12 | 0.0 | 0.0 | 0.00 | 0.00 | 0.00 | 72 | 1028.6 | |
| 20260508191954 | 13 | 0.0 | 0.0 | 0.00 | 0.00 | 0.00 | 71 | 1028.6 | |
| 20260508190953 | 13 | 0.0 | 0.0 | 0.00 | 0.00 | 0.00 | 71 | 1028.7 | |
| 20260508185953 | 13 | 0.0 | 0.0 | 0.00 | 0.00 | 0.00 | 70 | 1028.7 | |
| 20260508184954 | 13 | 0.0 | 0.0 | 0.00 | 0.00 | 0.00 | 70 | 1028.7 | |
| 20260508183953 | 13 | 0.0 | 0.0 | 0.00 | 0.00 | 0.00 | 69 | 1028.7 | |
| 20260508182954 | 14 | 0.0 | 0.0 | 0.00 | 0.00 | 0.00 | 69 | 1028.6 | |
| 20260508181953 | 14 | 0.0 | 0.0 | 0.00 | 0.00 | 0.00 | 69 | 1028.5 | |
| 20260508180953 | 15 | 0.0 | 0.0 | 0.00 | 0.00 | 0.00 | 68 | 1028.4 | |
| 20260508175953 | 15 | 0.0 | 0.0 | 0.00 | 0.00 | 0.00 | 67 | 1028.3 | |
| 20260508174953 | 15 | 0.0 | 0.0 | 0.00 | 0.00 | 0.00 | 67 | 1028.1 | |
| 20260508173953 | 16 | 0.0 | 0.0 | 0.00 | 0.00 | 0.00 | 65 | 1028.0 | |
| 20260508172953 | 16 | 0.0 | 0.0 | 0.00 | 0.00 | 0.00 | 65 | 1027.8 | |
| 20260508171953 | 17 | 0.0 | 0.0 | 0.00 | 0.00 | 0.00 | 62 | 1027.7 | |
| 20260508170953 | 17 | 0.0 | 0.0 | 0.00 | 0.00 | 0.00 | 63 | 1027.7 | |
| 20260508165953 | 17 | 0.0 | 0.0 | 0.00 | 0.00 | 0.00 | 62 | 1027.6 | |
| 20260508164953 | 18 | 0.0 | 0.0 | 0.00 | 0.00 | 0.00 | 59 | 1027.5 | |
| 20260508163953 | 20 | 0.0 | 0.0 | 0.00 | 0.00 | 0.00 | 57 | 1027.5 | |
| 20260508162953 | 20 | 0.0 | 0.0 | 0.00 | 0.00 | 0.00 | 55 | 1027.5 | |
| 20260508161953 | 21 | 0.0 | 0.0 | 0.00 | 0.00 | 0.00 | 55 | 1027.6 | |
| 20260508160953 | 21 | 0.0 | 0.0 | 0.00 | 0.00 | 0.00 | 55 | 1027.7 | |
| 20260508155953 | 22 | 0.0 | 0.0 | 0.00 | 0.00 | 0.00 | 53 | 1027.7 | |
| 20260508154953 | 23 | 0.0 | 0.0 | 0.00 | 0.00 | 0.00 | 47 | 1027.8 | |
| 20260508153953 | 24 | 0.0 | 0.0 | 0.00 | 0.00 | 0.00 | 46 | 1027.8 | |
| 20260508152953 | 25 | 0.0 | 0.0 | 0.00 | 0.00 | 0.00 | 40 | 1027.8 | |
| 20260508151953 | 25 | 0.0 | 0.0 | 0.00 | 0.00 | 0.00 | 41 | 1027.8 | |
| 20260508150953 | 26 | 0.0 | 0.0 | 0.00 | 0.00 | 0.00 | 37 | 1027.9 | |
| 20260508145953 | 26 | 0.0 | 0.0 | 0.00 | 0.00 | 0.00 | 34 | 1027.8 | |
| 20260508144953 | 26 | 0.0 | 0.0 | 0.00 | 0.00 | 0.00 | 37 | 1027.8 | |
| 20260508143953 | 26 | 0.0 | 0.0 | 0.00 | 0.00 | 0.00 | 35 | 1027.8 | |
| 20260508142953 | 27 | 0.0 | 0.0 | 0.00 | 0.00 | 0.00 | 35 | 1027.9 | |
| 20260508141953 | 27 | 0.0 | 0.0 | 0.00 | 0.00 | 0.00 | 36 | 1028.0 | |
| 20260508140953 | 27 | 0.0 | 0.0 | 0.00 | 0.00 | 0.00 | 34 | 1027.9 | |
| 20260508135953 | 28 | 0.0 | 0.0 | 0.00 | 0.00 | 0.00 | 34 | 1027.9 | |
| 20260508134953 | 28 | 0.0 | 0.0 | 0.00 | 0.00 | 0.00 | 32 | 1027.9 | |
| 20260508133953 | 28 | 0.0 | 0.0 | 0.00 | 0.00 | 0.00 | 34 | 1027.9 | |
| 20260508132953 | 29 | 0.0 | 0.0 | 0.00 | 0.00 | 0.00 | 32 | 1027.9 | |
| 20260508131953 | 28 | 0.0 | 0.0 | 0.00 | 0.00 | 0.00 | 34 | 1028.0 | |
| 20260508130953 | 28 | 0.0 | 0.0 | 0.00 | 0.00 | 0.00 | 33 | 1028.1 | |
| 20260508125953 | 28 | 0.0 | 0.0 | 0.00 | 0.00 | 0.00 | 33 | 1028.2 | |
| 20260508124953 | 29 | 0.0 | 0.0 | 0.00 | 0.00 | 0.00 | 32 | 1028.2 | |
| 20260508123953 | 29 | 0.0 | 0.0 | 0.00 | 0.00 | 0.00 | 33 | 1028.1 |